This is the latest recevied weather packets stored in our database for station/object SP5EB-3. If no packets are shown the sender has not sent any weather packets the latest 1 day(s).
| Time | Temp. | Humidity | Pressure | Rain* | Wind** | Luminosity | Snow |
|---|---|---|---|---|---|---|---|
| 1778092549 | 23.89° C | 99% | 1003.9 hPa | - | - | - | - |
| 1778092240 | 24.44° C | 99% | 1003.9 hPa | - | - | - | - |
| 1778091931 | 25° C | 99% | 1003.8 hPa | - | - | - | - |
| 1778090074 | 26.67° C | 99% | 1003.7 hPa | - | - | - | - |
| 1778089455 | 26.67° C | 99% | 1003.7 hPa | - | - | - | - |
| 1778088835 | 26.11° C | 99% | 1003.7 hPa | - | - | - | - |
| 1778088216 | 25.56° C | 99% | 1003.7 hPa | - | - | - | - |
| 1778087598 | 24.44° C | 99% | 1003.7 hPa | - | - | - | - |
| 1778085742 | 25° C | 99% | 1003.4 hPa | - | - | - | - |
| 1778085433 | 25° C | 99% | 1003.5 hPa | - | - | - | - |
| 1778084195 | 26.11° C | 99% | 1003.5 hPa | - | - | - | - |
| 1778083576 | 27.22° C | 99% | 1003.5 hPa | - | - | - | - |
| 1778082956 | 28.33° C | 99% | 1003.6 hPa | - | - | - | - |
| 1778082646 | 28.89° C | 99% | 1003.6 hPa | - | - | - | - |
| 1778082026 | 28.33° C | 99% | 1003.7 hPa | - | - | - | - |
| 1778081406 | 27.78° C | 99% | 1003.7 hPa | - | - | - | - |
| 1778080168 | 25.56° C | 99% | 1003.7 hPa | - | - | - | - |
| 1778079239 | 25.56° C | 99% | 1003.9 hPa | - | - | - | - |
| 1778078930 | 25.56° C | 99% | 1003.7 hPa | - | - | - | - |
| 1778078002 | 26.11° C | 99% | 1003.8 hPa | - | - | - | - |
| 1778076763 | 26.67° C | 99% | 1003.6 hPa | - | - | - | - |
| 1778075833 | 27.78° C | 99% | 1003.9 hPa | - | - | - | - |
| 1778075523 | 27.78° C | 99% | 1004 hPa | - | - | - | - |
| 1778074284 | 27.22° C | 99% | 1003.7 hPa | - | - | - | - |
| 1778073044 | 26.67° C | 99% | 1003.8 hPa | - | - | - | - |
* Rain since midnight (hover to see other rain measurements)
** Current wind speed in m/s (hover to see current wind gust speed)